VRG2162 SBGL-SBFI

Flight info

Callsign VRG2162
Flight time N/A
Altitude 36000
Route NAXOP UZ45 UKDAN UM415 ASETA UZ152 UPORU
Aircraft B737/M-SDE2E3FGHIRWXY/LB1

Departure

Time N/A
Airport Rio Galeão – Tom Jobim International Airport (SBGL)

Arrival

Time 2026-04-30 14:28
Airport Cataratas International Airport (SBFI)
Time Latitude Longitude Altitude Speed Heading
2026-04-30 14:17 -25.26357 -54.05345 14621 ft 408 kts 256°
2026-04-30 14:17 -25.27037 -54.08365 13804 ft 403 kts 256°
2026-04-30 14:17 -25.27716 -54.11358 12899 ft 399 kts 256°
2026-04-30 14:17 -25.28600 -54.15232 12267 ft 382 kts 256°
2026-04-30 14:18 -25.29233 -54.18002 12139 ft 361 kts 256°
2026-04-30 14:18 -25.29640 -54.19786 12059 ft 349 kts 256°
2026-04-30 14:18 -25.30772 -54.24751 11340 ft 333 kts 256°
2026-04-30 14:19 -25.31878 -54.29614 10653 ft 309 kts 257°
2026-04-30 14:19 -25.32389 -54.31859 10342 ft 296 kts 257°
2026-04-30 14:19 -25.32886 -54.34050 9932 ft 294 kts 257°
2026-04-30 14:20 -25.33387 -54.36261 9480 ft 294 kts 257°
2026-04-30 14:20 -25.33885 -54.38459 9028 ft 294 kts 257°
2026-04-30 14:20 -25.34871 -54.42817 8170 ft 293 kts 257°
2026-04-30 14:21 -25.35366 -54.45007 7737 ft 292 kts 257°
2026-04-30 14:21 -25.35857 -54.47182 7311 ft 291 kts 257°
2026-04-30 14:21 -25.36831 -54.51493 6472 ft 287 kts 257°
2026-04-30 14:22 -25.37241 -54.53316 6092 ft 286 kts 257°
2026-04-30 14:22 -25.38211 -54.57542 5212 ft 285 kts 252°
2026-04-30 14:22 -25.39233 -54.59404 4757 ft 287 kts 225°
2026-04-30 14:23 -25.42735 -54.61414 3908 ft 285 kts 200°
2026-04-30 14:23 -25.46463 -54.62904 3080 ft 283 kts 199°
2026-04-30 14:24 -25.49777 -54.62220 2982 ft 234 kts 127°
2026-04-30 14:24 -25.50634 -54.60787 2983 ft 214 kts 123°
2026-04-30 14:25 -25.52225 -54.58434 2992 ft 179 kts 128°
2026-04-30 14:25 -25.53800 -54.56211 2217 ft 179 kts 127°
2026-04-30 14:26 -25.55273 -54.54287 1759 ft 168 kts 129°
2026-04-30 14:26 -25.56024 -54.53302 1535 ft 164 kts 128°
2026-04-30 14:26 -25.57393 -54.51578 1210 ft 136 kts 128°
2026-04-30 14:27 -25.58012 -54.50757 1041 ft 140 kts 128°
2026-04-30 14:27 -25.58640 -54.49953 833 ft 134 kts 129°
2026-04-30 14:27 -25.59168 -54.49274 770 ft 124 kts 129°
2026-04-30 14:28 -25.59957 -54.48251 766 ft 45 kts 132°
2026-04-30 14:28 -25.60092 -54.48117 768 ft 19 kts 153°
2026-04-30 14:28 -25.60116 -54.48046 768 ft 7 kts
2026-04-30 14:28 -25.60080 -54.48077 768 ft 7 kts 309°
2026-04-30 14:29 -25.59992 -54.48195 767 ft 13 kts 310°
2026-04-30 14:29 -25.59861 -54.48367 766 ft 16 kts 310°
2026-04-30 14:30 -25.59832 -54.48513 775 ft 0 kts 249°
2026-04-30 14:31 -25.59767 -54.48563 765 ft 5 kts 317°
2026-04-30 14:31 -25.59742 -54.48590 766 ft 5 kts 316°
2026-04-30 14:32 -25.59677 -54.48644 766 ft 13 kts 311°
2026-04-30 14:32 -25.59694 -54.48687 775 ft 0 kts 209°
2026-04-30 14:32 -25.59711 -54.48739 793 ft 1 kts 248°
2026-04-30 14:33 -25.59704 -54.48746 793 ft 2 kts 319°
2026-04-30 14:33 -25.59702 -54.48782 794 ft 3 kts 220°
2026-04-30 14:33 -25.59719 -54.48798 795 ft 3 kts 222°
2026-04-30 14:34 -25.59735 -54.48813 796 ft 2 kts 222°